[Iaude] MPEC C39: 2024 AZ10 [a=1.42,e=0.59,i=23.6,H=22.6]
    mpec at marsden.cfa.harvard.edu 
    mpec at marsden.cfa.harvard.edu
       
    Sat Feb  3 19:10:37 EST 2024
    
    
  
M.P.E.C. 2024-C39                              Issued 2024 February 4, 00:09 UT
     The Minor Planet Electronic Circulars contain information on unusual
         minor planets, routine data on comets and natural satellites,
         and occasional editorial announcements.  They are published
    on behalf of Division F of the International Astronomical Union by the
          Minor Planet Center, Smithsonian Astrophysical Observatory,
                          Cambridge, MA 02138, U.S.A.
			  
             Prepared using the Tamkin Foundation Computer Network
                              MPC at CFA.HARVARD.EDU
            URL https://www.minorplanetcenter.net/    ISSN 1523-6714
                                   2024 AZ10                                    
Observations:
     K24A10Z KC2024 01 05.51889909 28 10.018-05 19 43.97         23.09GVEC039F52
     K24A10Z*KC2024 01 12.20920 09 29 08.34 -04 30 10.3          22.5 GXEC039W93
     K24A10Z KC2024 01 12.21409 09 29 08.32 -04 30 07.0                XEC039W93
     K24A10Z KC2024 01 12.21814 09 29 08.28 -04 30 04.0          21.3 GXEC039W93
     K24A10Z  C2024 01 19.50780309 27 48.202-02 21 57.25         21.07GVEC039F52
     K24A10Z  C2024 01 19.52022209 27 47.773-02 21 38.24         20.28GVEC039F52
     K24A10Z  C2024 01 19.54502809 27 46.943-02 21 00.14         20.85GVEC039F52
     K24A10Z  C2024 02 03.47375309 07 19.728+14 13 49.80         18.37oVEC039T08
     K24A10Z  C2024 02 03.47698809 07 18.977+14 14 18.78         18.76oVEC039T08
     K24A10Z  C2024 02 03.48716509 07 16.795+14 15 49.32         18.18oVEC039T08
     K24A10Z  C2024 02 03.49287509 07 15.482+14 16 39.29         18.87oVEC039T08
     K24A10Z hC2024 02 03.85217609 06 05.00 +15 10 42.1          18.8 GVEC039L01
     K24A10Z hC2024 02 03.85366309 06 04.71 +15 10 55.7          18.9 GVEC039L01
     K24A10Z hC2024 02 03.85515209 06 04.36 +15 11 09.7          18.7 GVEC039L01
     K24A10Z hC2024 02 03.85663909 06 04.04 +15 11 23.5          18.7 GVEC039L01
     K24A10Z hC2024 02 03.85812409 06 03.73 +15 11 37.9          19.0 GVEC039L01
     K24A10Z KC2024 02 03.89051509 05 56.47 +15 16 42.8          18.6 GVEC039104
     K24A10Z KC2024 02 03.89746509 05 54.89 +15 17 48.4          18.6 GVEC039104
     K24A10Z KC2024 02 03.90364509 05 53.50 +15 18 46.9          18.8 GVEC039104
     K24A10Z KC2024 02 03.90527 09 05 53.10 +15 19 02.8          19.4 GXEC039K83
     K24A10Z KC2024 02 03.90631609 05 53.41 +15 19 10.9          18.5 GXEC039958
     K24A10Z KC2024 02 03.90964 09 05 52.10 +15 19 43.4          19.7 GXEC039K83
     K24A10Z KC2024 02 03.91235109 05 52.02 +15 20 08.6          18.8 GXEC039958
     K24A10Z KC2024 02 03.91396 09 05 51.16 +15 20 24.3          19.6 GXEC039K83
     K24A10Z KC2024 02 03.91510 09 05 51.019+15 20 34.69         18.9 VqEC039C77
     K24A10Z KC2024 02 03.91838409 05 50.69 +15 21 05.3          18.8 GXEC039958
     K24A10Z KC2024 02 03.92549 09 05 48.629+15 22 12.90         19.0 VqEC039C77
     K24A10Z KC2024 02 03.93008 09 05 47.592+15 22 56.06         18.9 VqEC039C77
     K24A10Z KB2024 02 03.93555 09 05 46.92 +15 23 50.6          19.1 GXEC039Z41
     K24A10Z KB2024 02 03.93926 09 05 46.04 +15 24 25.7          18.8 GXEC039Z41
     K24A10Z KB2024 02 03.95069 09 05 43.39 +15 26 14.2          19.0 GXEC039Z41
     K24A10Z KC2024 02 03.96145709 05 40.118+15 27 53.52         18.2 GVEC039K63
     K24A10Z KB2024 02 03.96186 09 05 40.72 +15 28 00.2          18.9 GXEC039Z41
     K24A10Z KC2024 02 03.96436309 05 39.420+15 28 21.54         18.6 GVEC039K63
     K24A10Z KC2024 02 03.96758609 05 38.62 +15 28 53.3          18.0 RVEC039M50
     K24A10Z KC2024 02 03.96995009 05 38.100+15 29 14.25         18.6 GVEC039K63
     K24A10Z KC2024 02 03.97202309 05 37.59 +15 29 35.2                VEC039M50
Observer details:
104 San Marcello Pistoiese.  Observers P. Bacci, M. Maestripieri.  Measurers
    P. Bacci, L. Tesi, G. Fagioli.  0.60-m F4 Reflector + CCD.
958 Observatoire de Dax.  Observers P. Dupouy, J. B. de Vanssay.  Measurer P.
    Dupouy.  0.43-m f/2.7 Reflector + CCD.
C77 Bernezzo Observatory.  Observer A. Mantero.  0.25-m f/4.0 reflector + CCD.
F52 Pan-STARRS 2, Haleakala.  Observers J. Herman, T. Lowe, P. Minguez, A.
    Schultz, I. Smith.  Measurers K. Chambers, T. de Boer, J. Fairlamb, H.
    Gao, M. Huber, C.-C. Lin, E. Magnier, Y. Ramanjooloo, R. Wainscoat, R.
    Weryk.  1.8-m Ritchey-Chretien + CCD.
K63 G. Pascoli Observatory, Castelvecchio Pascoli.  Observer R. Bacci.  0.41-m
    f/3.75 0.41m f/3.2  Newton + CCD.
K83 Beppe Forti Astronomical Observatory, Montelupo.  Observers M. Tombelli,
    A. Mazzanti, G. Gambacciani, A. Squilloni, F. Cheli.  Measurers M.
    Tombelli, F. Bernardi.  0.40-m f/8 Ritchey-Chretien + CCD.
L01 Visnjan Observatory, Tican.  Observer K. Korlevic.  1.0-m f/2.9 reflector
    + CCD.
M50 Virtual Telescope Project, Manciano.  Observer G. Masi.  0.36-m  f/6.9
    Schmidt-Cassegrain + CCD.
T08 ATLAS-MLO, Mauna Loa.  Observers L. Denneau, R. Siverd, J. Tonry, H.
    Weiland.  Measurers L. Denneau, N. Erasmus, A. Fitzsimmons, A. Lawrence,
    J. Robinson, R. Siverd, J. Tonry, H. Weiland.  0.5-m Reflector + CCD.
W93 Korea Microlensing Telescope Network-CTIO.  Observers H. Jeon, D. Kim, C.
    Lee, O. Vaduvescu, E. Unda-Sanzana, M. Popescu.  Measurers M. Predatu, O.
    Vaduvescu, M. Popescu, M. Stanescu, L. Curelaru.  1.6-m f/3.0 reflector +
    CCD.
Z41 Irydeo Observatory, Camarma de Esteruelas.  Observer F. Calvo.  0.43-m
    f/6.8 reflector + CMO.
Orbital elements:
2024 AZ10                                                Earth MOID = 0.0674 AU
Epoch 2023 Sept. 13.0 TT = JDT 2460200.5                Bell                    
M 238.55493              (2000.0)            P               Q                  
n   0.58027001     Peri.  107.01519     -0.41820210     +0.86238146             
a   1.4235825      Node   134.60829     -0.90803664     -0.40520016             
e   0.5879888      Incl.   23.62615     +0.02400958     -0.30349802             
P   1.70           H   22.60          G   0.15           U   7                  
Residuals in seconds of arc
240105 F52  0.0   0.0     240203 L01  0.0   0.2-    240203 C77  0.1+  0.3+
240112 W93  0.1+  0.2-    240203 L01  0.1+  0.3-    240203 C77  0.5+  0.0
240112 W93  0.2+  0.2-    240203 L01  0.5+  0.1+    240203 Z41  0.3+  0.2+
240112 W93  0.0   0.0     240203 104  0.5-  0.3-    240203 Z41  0.0   0.1+
240119 F52  0.1-  0.0     240203 104  0.4-  0.2-    240203 Z41  0.1+  0.1+
240119 F52  0.1-  0.0     240203 104  0.0   0.1+    240203 K63  0.3+  0.2-
240119 F52  0.2+  0.0     240203 K83  0.3-  0.3+    240203 Z41  0.8-  0.0
240203 T08  0.3+  0.4-    240203 958  0.2-  0.2-    240203 K63  0.0   0.3+
240203 T08  0.2-  0.0     240203 K83  0.2-  0.3-    240203 M50  0.1+  0.1-
240203 T08  1.0+  0.6+    240203 958  0.4-  0.4+    240203 K63  0.1-  0.0
240203 T08  0.3+  0.0     240203 K83  0.6+  0.2-    240203 M50  0.3+  0.3-
240203 L01  0.5-  0.1+    240203 C77  0.1+  0.3+
240203 L01  0.2+  0.2-    240203 958  0.4+  0.1+
Ephemeris:
2024 AZ10                a,e,i = 1.42, 0.59, 24                  q = 0.5865
Date    TT    R. A. (2000) Decl.     Delta      r    Elong.  Phase     V
2024 01 05    09 28 01.2 -05 21 37   0.5341  1.4086   134.2    30.0    23.3
...
2024 01 20    09 27 36.0 -02 08 54   0.3242  1.2745   149.7    22.9    21.8
...
2024 01 28    09 21 05.4 +03 32 26   0.2228  1.1984   161.8    14.9    20.6
...
2024 02 03    09 08 51.0 +13 06 12   0.1541  1.1393   176.0     3.4    19.2
2024 02 04    09 05 31.6 +15 34 22   0.1437  1.1294   179.0     0.9    18.8
2024 02 05    09 01 35.5 +18 25 02   0.1337  1.1193   176.8     2.8    18.8
...
2024 02 11    08 07 20.6 +46 53 41   0.08827 1.0584   142.7    34.4    18.9
...
2024 02 19    00 09 36.7 +64 45 14   0.1037  0.9754    79.9    94.1    21.0
...
2024 03 05    22 15 57.5 +33 52 33   0.2537  0.8192    41.5   126.7    24.6
M. P. C. Staff               (C) Copyright 2024 MPC           M.P.E.C. 2024-C39
    
    
More information about the Iaude
mailing list